W7KKE-3 Weather Reports


Display with metric or nautical units.
time (UTC)temp
F
wind
direction
speed
MPH
gust
MPH
rain 1hr
in
rain 24hr
in
rain mn
in
humidity
%
barometer
mb
20160430110937 50 0 0.0 0.0 0.00 0.06 0.00 92 1027.6
20160430110437 50 0 0.0 0.0 0.00 0.06 0.00 92 1027.5
20160430105938 50 0 0.0 0.0 0.00 0.06 0.00 92 1027.5
20160430105437 50 0 0.0 0.0 0.00 0.06 0.00 91 1027.5
20160430104937 50 0 0.0 0.0 0.00 0.06 0.00 91 1027.6
20160430104437 51 0 0.0 0.0 0.00 0.06 0.00 91 1027.4
20160430103937 51 0 0.0 0.0 0.00 0.06 0.00 91 1027.3
20160430103437 51 0 0.0 0.0 0.00 0.06 0.00 91 1027.4
20160430102938 51 0 0.0 0.0 0.00 0.06 0.00 90 1027.3
20160430102437 51 0 0.0 0.0 0.00 0.06 0.00 90 1027.3
20160430101937 51 0 0.0 0.0 0.00 0.06 0.00 90 1027.3
20160430101437 51 0 0.0 0.0 0.00 0.06 0.00 90 1027.2
20160430100937 51 0 0.0 0.0 0.00 0.06 0.00 90 1027.1
20160430100437 51 0 0.0 0.0 0.00 0.06 0.00 89 1027.0
20160430095938 51 0 0.0 0.0 0.00 0.06 0.00 89 1026.9
20160430095437 51 0 0.0 0.0 0.00 0.06 0.00 89 1026.9
20160430094937 51 0 0.0 0.0 0.00 0.06 0.00 89 1026.9
20160430094437 51 309 0.0 11.0 0.00 0.06 0.00 89 1026.9
20160430093937 51 309 1.0 11.0 0.00 0.06 0.00 89 1026.9
20160430093437 52 338 3.0 11.0 0.00 0.06 0.00 88 1027.0
20160430092938 52 338 5.0 11.0 0.00 0.06 0.00 88 1026.8
20160430092437 52 354 7.0 9.0 0.00 0.06 0.00 89 1026.9
20160430091937 52 354 5.0 9.0 0.00 0.06 0.00 88 1026.9
20160430091437 52 327 1.0 11.0 0.00 0.06 0.00 88 1026.8
20160430090937 52 327 0.0 11.0 0.00 0.06 0.00 88 1026.9
20160430090437 52 320 5.0 11.0 0.00 0.06 0.00 88 1026.8
20160430085938 52 334 8.0 12.0 0.00 0.06 0.00 88 1026.8
20160430085437 52 341 5.0 12.0 0.00 0.06 0.00 88 1026.8
20160430084937 52 326 0.0 12.0 0.00 0.06 0.00 88 1026.9
20160430084437 52 312 5.0 16.0 0.00 0.06 0.00 87 1026.8
20160430083937 52 298 6.0 16.0 0.00 0.06 0.00 88 1026.8
20160430083437 52 298 4.0 16.0 0.00 0.06 0.00 87 1026.9
20160430082938 52 316 9.0 15.0 0.00 0.06 0.00 87 1026.8
20160430082437 52 316 9.0 15.0 0.00 0.06 0.00 88 1026.8
20160430081937 53 330 8.0 9.0 0.00 0.06 0.00 88 1026.8
20160430081437 53 330 3.0 9.0 0.00 0.06 0.00 88 1026.8
20160430080937 53 340 1.0 14.0 0.00 0.06 0.00 88 1026.7
20160430080437 53 340 4.0 14.0 0.00 0.06 0.00 88 1026.8
20160430075938 53 337 8.0 13.0 0.00 0.06 0.00 88 1026.7
20160430075437 53 337 8.0 13.0 0.00 0.06 0.00 88 1026.7
20160430074937 53 291 4.0 18.0 0.00 0.06 0.00 88 1026.8
20160430074437 53 330 7.0 18.0 0.00 0.06 0.00 88 1026.7
20160430073938 53 337 10.0 15.0 0.00 0.06 0.00 88 1026.6
20160430073437 53 338 9.0 20.0 0.00 0.06 0.00 88 1026.6
20160430072938 53 338 8.0 20.0 0.00 0.06 0.00 88 1026.6
20160430072437 53 331 11.0 20.0 0.00 0.06 0.00 88 1026.5
20160430071937 53 331 10.0 20.0 0.00 0.06 0.00 88 1026.5
20160430071437 53 316 11.0 15.0 0.00 0.06 0.00 89 1026.4
20160430070937 53 316 9.0 15.0 0.00 0.06 0.00 89 1026.5
20160430065938 53 317 13.0 20.0 0.00 0.06 0.00 89 1026.4
20160430065437 53 334 12.0 18.0 0.00 0.06 0.06 89 1026.4
20160430064937 53 334 11.0 18.0 0.00 0.06 0.06 89 1026.4
20160430064437 53 305 8.0 19.0 0.00 0.06 0.06 90 1026.4
20160430063937 53 305 9.0 19.0 0.00 0.06 0.06 90 1026.3
20160430063437 53 313 10.0 19.0 0.00 0.06 0.06 90 1026.3
20160430062937 53 302 10.0 21.0 0.00 0.06 0.06 90 1026.2
20160430062437 53 294 10.0 21.0 0.00 0.06 0.06 90 1026.2
20160430061937 53 345 12.0 21.0 0.00 0.06 0.06 90 1026.2
20160430061437 53 324 11.0 18.0 0.00 0.06 0.06 90 1026.1
20160430060937 53 334 11.0 22.0 0.00 0.06 0.06 91 1026.2
20160430060437 53 334 14.0 22.0 0.00 0.06 0.06 91 1026.1
20160430055937 53 333 12.0 22.0 0.00 0.06 0.06 91 1026.1
20160430055437 53 333 12.0 22.0 0.00 0.06 0.06 91 1026.1
20160430054937 53 340 12.0 20.0 0.00 0.06 0.06 91 1026.0
20160430054437 53 340 10.0 20.0 0.00 0.06 0.06 91 1025.9
20160430053937 53 331 12.0 19.0 0.00 0.06 0.06 91 1025.9
20160430053437 54 331 12.0 19.0 0.00 0.06 0.06 92 1025.9
20160430052937 54 302 13.0 23.0 0.00 0.06 0.06 92 1025.8
20160430052437 54 302 11.0 23.0 0.00 0.06 0.06 92 1025.7
20160430051937 54 326 15.0 22.0 0.00 0.06 0.06 92 1025.7
20160430051437 54 340 14.0 22.0 0.00 0.06 0.06 92 1025.7
20160430050937 54 324 13.0 22.0 0.00 0.06 0.06 92 1025.8
20160430050437 54 326 13.0 21.0 0.00 0.06 0.06 92 1025.8
20160430045937 54 329 9.0 21.0 0.00 0.06 0.06 92 1025.8
20160430045437 54 322 12.0 21.0 0.00 0.06 0.06 93 1025.7
20160430044937 54 322 12.0 21.0 0.00 0.06 0.06 93 1025.7
20160430044437 54 324 14.0 21.0 0.00 0.06 0.06 93 1025.6
20160430043937 54 324 13.0 21.0 0.00 0.06 0.06 93 1025.4
20160430043437 54 326 13.0 24.0 0.00 0.06 0.06 93 1025.5
20160430042937 54 326 12.0 24.0 0.00 0.06 0.06 93 1025.4
20160430042437 54 317 13.0 21.0 0.00 0.06 0.06 92 1025.3
20160430041937 54 317 13.0 21.0 0.00 0.06 0.06 92 1025.2
20160430041437 54 334 12.0 22.0 0.00 0.06 0.06 93 1025.1
20160430040936 54 334 12.0 22.0 0.00 0.06 0.06 93 1025.1
20160430040436 54 324 13.0 21.0 0.00 0.06 0.06 93 1025.1
20160430035937 54 310 14.0 19.0 0.00 0.06 0.06 93 1025.0
20160430035436 54 331 12.0 22.0 0.00 0.06 0.06 93 1024.9
20160430034936 54 306 13.0 22.0 0.00 0.06 0.06 93 1024.9
20160430034437 54 320 11.0 22.0 0.00 0.06 0.06 93 1024.8
20160430033936 54 312 12.0 22.0 0.00 0.06 0.06 94 1024.8
20160430033436 55 343 13.0 22.0 0.00 0.06 0.06 94 1024.7
20160430032937 55 316 14.0 20.0 0.00 0.06 0.06 94 1024.6
20160430032436 55 316 13.0 20.0 0.00 0.06 0.06 94 1024.5
20160430031936 55 322 10.0 20.0 0.00 0.06 0.06 94 1024.5
20160430031437 55 322 13.0 20.0 0.00 0.06 0.06 94 1024.4
20160430030936 55 310 12.0 22.0 0.00 0.06 0.06 94 1024.4
20160430030436 55 310 11.0 22.0 0.00 0.06 0.06 94 1024.3
20160430025937 55 309 13.0 22.0 0.00 0.06 0.06 93 1024.3
20160430025436 55 309 13.0 22.0 0.00 0.06 0.06 93 1024.2
20160430024936 55 320 12.0 22.0 0.00 0.06 0.06 94 1024.2
20160430024437 55 331 13.0 19.0 0.00 0.06 0.06 94 1024.1
20160430023936 55 337 13.0 19.0 0.00 0.06 0.06 93 1024.1
20160430023436 55 315 12.0 19.0 0.00 0.06 0.06 93 1024.0
20160430022937 55 334 13.0 19.0 0.00 0.06 0.06 93 1023.9
20160430022436 55 317 12.0 23.0 0.00 0.06 0.06 92 1023.9
20160430021936 55 331 12.0 23.0 0.00 0.06 0.06 93 1023.9
20160430021437 56 309 12.0 23.0 0.00 0.06 0.06 93 1023.9
20160430020936 56 309 14.0 23.0 0.00 0.06 0.06 93 1023.9
20160430020436 56 326 9.0 20.0 0.00 0.06 0.06 93 1024.1
20160430015937 55 326 12.0 20.0 0.00 0.06 0.06 93 1024.0
20160430015436 55 336 12.0 21.0 0.00 0.06 0.06 93 1024.0
20160430014936 55 336 13.0 21.0 0.00 0.06 0.06 93 1023.8
20160430014437 55 312 11.0 20.0 0.00 0.06 0.06 93 1023.8
20160430013936 55 312 13.0 24.0 0.00 0.06 0.06 93 1023.8
20160430013436 55 338 13.0 24.0 0.00 0.06 0.06 94 1023.8
20160430012938 55 322 15.0 24.0 0.00 0.06 0.06 94 1023.8
20160430012436 55 330 14.0 25.0 0.00 0.06 0.06 94 1023.8
20160430011437 56 334 14.0 25.0 0.00 0.06 0.06 94 1023.7
20160430010936 56 308 15.0 23.0 0.00 0.06 0.06 94 1023.8
20160430010436 56 308 14.0 23.0 0.00 0.06 0.06 95 1023.7
20160430005937 56 331 16.0 21.0 0.00 0.06 0.06 95 1023.6
20160430005436 56 331 15.0 21.0 0.00 0.06 0.06 95 1023.6
20160430004936 56 315 14.0 23.0 0.00 0.06 0.06 95 1023.6
20160430004437 56 315 14.0 23.0 0.00 0.06 0.06 95 1023.5
20160430003936 56 312 15.0 23.0 0.00 0.06 0.06 95 1023.5
20160430003436 57 312 13.0 23.0 0.00 0.06 0.06 95 1023.4
20160430002937 57 331 15.0 24.0 0.00 0.06 0.06 95 1023.4
20160430002436 57 302 14.0 24.0 0.00 0.06 0.06 95 1023.4
20160430001936 57 313 16.0 23.0 0.00 0.06 0.06 96 1023.4
20160430001437 57 271 13.0 23.0 0.01 0.06 0.06 96 1023.3
20160430000936 57 296 17.0 24.0 0.01 0.06 0.06 95 1023.2
20160430000436 57 331 14.0 24.0 0.01 0.06 0.06 96 1023.3
20160429235937 57 330 16.0 24.0 0.01 0.06 0.06 95 1023.2
20160429235436 58 327 17.0 23.0 0.01 0.06 0.06 96 1023.2
20160429234936 57 326 14.0 23.0 0.01 0.06 0.06 96 1023.3
20160429234437 58 322 15.0 23.0 0.01 0.06 0.06 96 1023.3
20160429233936 58 322 14.0 23.0 0.01 0.06 0.06 96 1023.3
20160429233436 58 302 15.0 22.0 0.01 0.06 0.06 96 1023.2
20160429232937 58 302 13.0 22.0 0.01 0.06 0.06 96 1023.3
20160429232436 58 343 7.0 18.0 0.01 0.06 0.06 96 1023.3
20160429231936 58 343 9.0 18.0 0.01 0.06 0.06 95 1023.3
20160429231437 58 331 10.0 18.0 0.01 0.06 0.06 95 1023.3
20160429230936 59 331 12.0 18.0 0.01 0.06 0.06 94 1023.3
20160429230436 59 301 10.0 13.0 0.02 0.05 0.05 93 1023.3
20160429225937 60 257 8.0 12.0 0.02 0.05 0.05 94 1023.1
20160429225437 60 316 9.0 12.0 0.02 0.05 0.05 94 1023.1
20160429224936 60 308 7.0 11.0 0.02 0.05 0.05 95 1023.1
20160429224437 60 277 7.0 10.0 0.02 0.05 0.05 95 1023.0
20160429223936 60 310 5.0 10.0 0.02 0.05 0.05 95 1023.0
20160429223436 60 288 7.0 15.0 0.02 0.05 0.05 95 1023.0
20160429222937 60 294 6.0 15.0 0.02 0.05 0.05 95 1023.0
20160429222437 60 294 7.0 15.0 0.02 0.05 0.05 95 1023.0
20160429221936 59 299 10.0 10.0 0.02 0.05 0.05 95 1023.0
20160429221437 59 299 0.0 6.0 0.02 0.05 0.05 94 1023.0
20160429220936 59 299 5.0 11.0 0.01 0.05 0.05 94 1023.0
20160429220436 59 299 3.0 11.0 0.01 0.04 0.04 93 1023.1
20160429215937 59 289 7.0 11.0 0.00 0.03 0.03 93 1023.1
20160429215436 60 289 6.0 11.0 0.00 0.03 0.03 93 1023.1
20160429214936 60 302 6.0 9.0 0.00 0.03 0.03 93 1023.2
20160429214437 60 270 6.0 11.0 0.00 0.03 0.03 94 1023.1
20160429213936 60 275 5.0 11.0 0.00 0.03 0.03 94 1023.2
20160429213436 59 282 7.0 11.0 0.00 0.03 0.03 93 1023.1
20160429212937 60 289 7.0 10.0 0.00 0.03 0.03 93 1023.1
20160429212436 60 282 7.0 9.0 0.00 0.03 0.03 94 1023.0
20160429211936 60 289 6.0 8.0 0.00 0.03 0.03 94 1023.0
20160429211437 59 274 5.0 7.0 0.00 0.03 0.03 94 1023.0
20160429210936 59 274 5.0 7.0 0.00 0.03 0.03 94 1022.9
20160429210436 59 254 5.0 7.0 0.00 0.03 0.03 93 1023.0
20160429205937 59 254 5.0 7.0 0.00 0.03 0.03 93 1023.0
20160429205436 59 295 2.0 8.0 0.00 0.03 0.03 92 1022.8
20160429204936 60 295 5.0 8.0 0.00 0.03 0.03 93 1022.9
20160429204437 60 278 6.0 8.0 0.00 0.03 0.03 92 1022.8
20160429203936 60 278 5.0 8.0 0.00 0.03 0.03 93 1022.8
20160429203436 60 294 3.0 9.0 0.00 0.03 0.03 92 1022.7
20160429202937 60 278 6.0 9.0 0.00 0.03 0.03 92 1022.7
20160429202436 60 275 4.0 9.0 0.00 0.03 0.03 91 1022.7
20160429201936 60 303 6.0 8.0 0.00 0.03 0.03 91 1022.8
20160429201437 60 282 4.0 9.0 0.00 0.03 0.03 91 1022.7
20160429200936 60 261 6.0 9.0 0.00 0.03 0.03 91 1022.6
20160429200436 60 273 3.0 9.0 0.00 0.03 0.03 91 1022.6
20160429195939 60 299 6.0 7.0 0.00 0.03 0.03 91 1022.5
20160429195436 60 291 6.0 8.0 0.00 0.03 0.03 91 1022.5
20160429194936 60 294 6.0 8.0 0.00 0.03 0.03 92 1022.5
20160429194436 60 294 3.0 8.0 0.00 0.03 0.03 92 1022.5
20160429193936 60 281 5.0 10.0 0.00 0.03 0.03 92 1022.5
20160429193436 60 281 5.0 10.0 0.00 0.03 0.03 92 1022.5
20160429192937 60 275 7.0 10.0 0.00 0.03 0.03 92 1022.4
20160429192436 60 275 8.0 10.0 0.00 0.03 0.03 93 1022.4
20160429191936 60 291 4.0 9.0 0.00 0.03 0.03 92 1022.4
20160429191436 59 291 6.0 9.0 0.00 0.03 0.03 92 1022.3
20160429190936 59 260 6.0 11.0 0.00 0.03 0.03 93 1022.3
20160429190436 59 280 5.0 11.0 0.00 0.03 0.03 94 1022.3
20160429185937 59 285 7.0 11.0 0.00 0.03 0.03 94 1022.3
20160429185436 59 273 5.0 10.0 0.00 0.03 0.03 94 1022.3
20160429184936 59 312 6.0 11.0 0.00 0.03 0.03 94 1022.3
20160429184437 59 281 6.0 11.0 0.00 0.03 0.03 94 1022.3
20160429183936 58 295 5.0 11.0 0.00 0.03 0.03 95 1022.3
20160429183436 58 282 6.0 11.0 0.00 0.03 0.03 95 1022.4
20160429181436 58 298 7.0 13.0 0.00 0.03 0.03 95 1022.3
20160429180936 57 298 7.0 13.0 0.00 0.03 0.03 96 1022.4
20160429180436 57 303 10.0 13.0 0.00 0.03 0.03 96 1022.4
20160429175937 56 303 8.0 13.0 0.00 0.03 0.03 96 1022.3
20160429175436 56 298 9.0 16.0 0.00 0.03 0.03 96 1022.3
20160429174936 56 308 7.0 16.0 0.00 0.03 0.03 96 1022.3
20160429174436 56 310 9.0 16.0 0.00 0.03 0.03 96 1022.2
20160429173936 56 312 9.0 14.0 0.00 0.03 0.03 96 1022.2
20160429173436 56 288 9.0 13.0 0.00 0.03 0.03 96 1022.1
20160429172937 56 302 7.0 13.0 0.00 0.03 0.03 95 1022.0
20160429172436 56 312 6.0 11.0 0.00 0.03 0.03 95 1022.0
20160429171936 56 299 7.0 12.0 0.00 0.03 0.03 96 1021.9
20160429171436 56 294 6.0 12.0 0.00 0.03 0.03 95 1021.9
20160429170936 56 305 7.0 12.0 0.00 0.03 0.03 95 1021.8
20160429170436 56 305 6.0 12.0 0.00 0.03 0.03 95 1021.8
20160429165937 56 299 7.0 11.0 0.00 0.03 0.03 95 1021.7
20160429165436 56 299 8.0 11.0 0.00 0.03 0.03 95 1021.7
20160429164936 56 298 6.0 11.0 0.00 0.03 0.03 95 1021.7
20160429164436 56 298 7.0 11.0 0.00 0.03 0.03 96 1021.6
20160429163936 56 303 7.0 11.0 0.00 0.03 0.03 96 1021.6
20160429163436 55 294 8.0 9.0 0.00 0.03 0.03 96 1021.7
20160429162937 55 296 7.0 9.0 0.00 0.03 0.03 96 1021.6
20160429162436 55 315 6.0 11.0 0.00 0.03 0.03 96 1021.6
20160429161937 54 303 6.0 11.0 0.00 0.03 0.03 96 1021.6
20160429161436 54 306 6.0 11.0 0.00 0.03 0.03 96 1021.5
20160429160936 54 305 8.0 12.0 0.00 0.03 0.03 96 1021.5
20160429160436 54 292 5.0 12.0 0.00 0.07 0.03 97 1021.5
20160429155937 54 301 7.0 12.0 0.00 0.07 0.03 97 1021.5
20160429155436 54 312 7.0 11.0 0.00 0.07 0.03 97 1021.5
20160429154936 54 312 7.0 11.0 0.00 0.07 0.03 97 1021.5
20160429154436 53 295 8.0 11.0 0.00 0.07 0.03 97 1021.4
20160429153936 53 295 6.0 11.0 0.00 0.07 0.03 97 1021.4
20160429153436 53 305 5.0 12.0 0.00 0.07 0.03 97 1021.3
20160429152937 53 305 7.0 12.0 0.00 0.07 0.03 97 1021.3
20160429152436 53 313 6.0 10.0 0.00 0.07 0.03 97 1021.2
20160429151936 53 319 7.0 11.0 0.00 0.07 0.03 97 1021.2
20160429151436 53 329 6.0 11.0 0.00 0.07 0.03 97 1021.1
20160429150936 53 270 4.0 11.0 0.00 0.07 0.03 97 1021.1
20160429150436 53 302 8.0 10.0 0.00 0.07 0.03 97 1021.0
20160429145436 53 323 6.0 11.0 0.00 0.07 0.03 97 1020.9
20160429144936 53 281 4.0 11.0 0.00 0.07 0.03 97 1020.8
20160429144436 53 316 7.0 11.0 0.00 0.07 0.03 97 1020.8
20160429143936 53 326 5.0 12.0 0.00 0.07 0.03 97 1020.8
20160429143436 53 320 6.0 12.0 0.00 0.07 0.03 97 1020.7
20160429142937 53 306 6.0 12.0 0.00 0.07 0.03 97 1020.7
20160429142436 53 306 7.0 12.0 0.00 0.07 0.03 97 1020.7
20160429141936 53 277 5.0 11.0 0.00 0.07 0.03 97 1020.6
20160429141436 52 277 4.0 11.0 0.00 0.07 0.03 97 1020.7
20160429140936 52 322 8.0 11.0 0.00 0.07 0.03 97 1020.6
20160429140436 52 327 7.0 11.0 0.00 0.08 0.03 97 1020.7
20160429135937 52 317 3.0 9.0 0.00 0.08 0.03 97 1020.6
20160429135436 52 0 4.0 6.0 0.00 0.08 0.03 97 1020.7
20160429134936 52 0 0.0 6.0 0.00 0.08 0.03 97 1020.6
20160429134436 52 5 0.0 6.0 0.00 0.08 0.03 97 1020.6
20160429133936 52 0 0.0 3.0 0.00 0.08 0.03 97 1020.5
20160429133436 52 0 0.0 0.0 0.00 0.08 0.03 97 1020.6
20160429132937 52 0 0.0 0.0 0.00 0.08 0.03 97 1020.6
20160429132436 52 0 0.0 0.0 0.00 0.08 0.03 97 1020.6
20160429131936 52 0 0.0 0.0 0.00 0.08 0.03 97 1020.5
20160429131436 52 0 0.0 0.0 0.00 0.08 0.03 97 1020.6
20160429130936 52 0 0.0 0.0 0.00 0.08 0.03 97 1020.5
20160429130436 52 0 0.0 0.0 0.00 0.09 0.03 97 1020.6
20160429125937 52 0 0.0 0.0 0.00 0.09 0.03 97 1020.5
20160429125436 52 0 0.0 0.0 0.03 0.09 0.03 97 1020.6
20160429124936 52 0 0.0 0.0 0.03 0.09 0.03 97 1020.5
20160429124436 52 0 0.0 0.0 0.03 0.09 0.03 97 1020.5
20160429123936 52 0 0.0 0.0 0.03 0.09 0.03 97 1020.5
20160429123436 52 0 0.0 0.0 0.03 0.09 0.03 97 1020.6
20160429122937 52 0 0.0 0.0 0.03 0.09 0.03 97 1020.4
20160429122436 52 0 0.0 0.0 0.03 0.09 0.03 97 1020.4
20160429121936 52 0 0.0 0.0 0.03 0.09 0.03 96 1020.4
20160429121436 52 0 0.0 0.0 0.03 0.09 0.03 96 1020.4
20160429120936 52 0 0.0 0.0 0.03 0.09 0.03 96 1020.4
20160429120436 52 0 0.0 0.0 0.03 0.09 0.03 96 1020.4
20160429115936 52 0 0.0 0.0 0.03 0.09 0.03 96 1020.5
20160429115436 52 0 0.0 0.0 0.03 0.09 0.03 96 1020.4
20160429114936 52 0 0.0 0.0 0.00 0.09 0.01 96 1020.5
20160429114436 52 0 0.0 0.0 0.00 0.09 0.00 96 1020.4
20160429113936 52 0 0.0 0.0 0.00 0.09 0.00 96 1020.5
20160429113436 53 0 0.0 0.0 0.00 0.09 0.00 96 1020.6
20160429112936 53 0 0.0 0.0 0.00 0.09 0.00 96 1020.6
20160429112436 53 0 0.0 0.0 0.00 0.09 0.00 96 1020.6
20160429111936 53 0 0.0 0.0 0.00 0.09 0.00 96 1020.7
20160429111436 53 0 0.0 0.0 0.00 0.09 0.00 96 1020.7